#timestamp,LO_Frequency,Hit,StdDev 
1518282015.3,286046989.3,N
1518282035.1,286046988.2,N
1518282055.9,286046985.9,N
1518282075.7,286046984.6,N
1518282095.5,286046984.5,N
1518282115.4,286046985.0,N
1518282135.2,286046982.1,N
1518282155.1,286046984.6,N
1518282156.0,286046984.6,N
1518282175.8,286046982.1,N
1518282195.6,286046984.7,N
1518282215.5,286046984.5,N
1518282235.3,286046986.8,N
1518282255.7,286046984.7,N
1518282275.5,286046984.9,N
1518282295.3,286046986.1,N
1518282315.2,286046982.1,Y
1518282335.0,286046995.2,P
1518282335.9,286046995.2,N
1518282355.8,286046996.6,N
1518282375.6,286046999.5,N
1518282395.5,286046996.8,N
1518282415.3,286046997.0,N
1518282435.1,286046995.9,N
1518282455.9,286046999.6,N
1518282475.7,286046995.0,N
1518282495.5,286046997.9,N
1518282515.4,286046995.6,N
1518282535.2,286046995.2,N
1518282555.1,286046997.2,N
1518282556.0,286046997.2,N
1518282575.8,286046996.5,N
1518282595.6,286046996.8,N
1518282615.5,286046995.4,N
1518282635.3,286046997.0,N
1518282655.2,286046997.9,N
1518282675.9,286046997.6,N
1518282695.7,286046996.6,N
1518282715.6,286046995.8,N
1518282735.4,286046995.6,N
1518282755.3,286046997.7,N
1518282775.1,286046999.3,N
1518282776.0,286046999.3,N
1518282795.8,286046999.3,N
1518282815.7,286047000.2,N
1518282835.5,286047002.4,N
1518282855.4,286047000.4,N
1518282875.2,286047000.0,N
1518282895.0,286047001.6,N
1518282895.9,286047001.6,N
1518282915.8,286047002.3,N
1518282935.6,286046999.7,N
1518282955.5,286047001.6,N
1518282975.3,286047004.0,N
1518282995.1,286047006.0,N
1518283015.9,286047001.5,N
1518283035.7,286047000.8,N
1518283055.5,286047000.2,N
1518283075.4,286047002.7,N
1518283095.2,286046999.7,N
1518283115.1,286047002.6,N
1518283116.0,286047002.6,N
1518283135.8,286047000.2,N
1518283155.6,286047000.3,N
1518283175.5,286046999.9,N
1518283195.3,286046999.7,N
1518283215.2,286046999.8,N
1518283235.9,286047000.5,N
1518283255.7,286047000.1,N
1518283275.6,286047004.0,N
1518283295.4,286047001.3,N
1518283315.2,286047011.9,Y
1518283335.1,286047000.1,P
1518283336.0,286047000.1,N
1518283355.8,286047001.5,P
1518283375.7,286047004.4,Y
1518283395.5,286047001.9,P
1518283415.3,286047004.0,P
1518283435.2,286047002.6,N
1518283455.0,286046999.9,N
1518283455.9,286046999.9,N
1518283475.8,286046998.2,N
1518283495.6,286046996.7,N
1518283515.4,286046999.0,N
1518283535.3,286046998.8,N
1518283555.1,286046999.8,N
1518283575.8,286047002.1,N
1518283595.7,286047002.6,N
1518283615.5,286047001.5,N
1518283635.4,286047004.4,N
1518283655.2,286047004.3,N
1518283675.0,286047003.6,N
1518283675.9,286047003.6,N
1518283695.8,286047001.9,N
1518283715.6,286047002.7,N
1518283735.4,286047002.5,N
1518283755.3,286047002.7,N
1518283775.1,286047000.4,N
1518283795.9,286047004.2,N
1518283815.7,286047003.4,N
1518283835.5,286047006.8,Y
1518283855.4,286047002.3,P
1518283875.2,286047002.1,P
1518283895.1,286046999.8,N
1518283896.0,286046999.8,N
1518283915.8,286047000.4,N
1518283935.6,286047000.9,N
1518283955.5,286047000.4,N
1518283975.3,286047002.3,N
1518283995.1,286047001.7,N
1518284015.9,286047002.0,N
1518284035.7,286047002.5,N
1518284055.6,286047000.4,N
1518284075.4,286046998.5,N
1518284095.2,286047000.6,N
1518284115.1,286047001.5,N
1518284116.0,286047001.5,N
1518284135.8,286047000.2,N
1518284155.6,286047000.0,N
1518284175.5,286047000.7,N
1518284195.3,286047000.5,N
1518284215.2,286046999.8,N
1518284235.9,286047002.7,N
1518284255.7,286047002.2,N
1518284275.6,286047001.3,N
1518284295.4,286047002.1,N
1518284315.3,286047001.3,N
1518284335.1,286047001.5,N
1518284336.0,286047001.5,N
1518284355.8,286047001.1,N
1518284375.7,286047001.2,N
1518284395.5,286047000.1,N
1518284415.4,286047001.8,N
1518284435.2,286047002.0,N
1518284455.0,286047002.0,N
1518284455.9,286047002.0,N
1518284475.8,286047001.8,N
1518284495.6,286047001.5,N
1518284515.4,286047001.5,N
1518284535.3,286047002.8,Y
1518284555.1,286047000.2,P
1518284575.9,286046999.7,N
1518284595.7,286047000.6,N
1518284615.5,286046998.2,Y
1518284635.4,286046998.1,P
1518284655.2,286047000.8,N
1518284675.1,286046998.5,N
1518284676.0,286046998.5,N
1518284695.8,286046998.8,N
1518284715.6,286047001.2,N
1518284735.5,286046999.3,N
1518284755.3,286046999.3,N
1518284775.2,286046998.8,N
1518284795.9,286046998.8,N
1518284815.7,286046998.4,N
1518284835.6,286047000.6,N
1518284855.4,286047000.4,N
1518284875.2,286047002.7,N
1518284895.1,286047001.5,N
1518284896.0,286047001.5,N
1518284915.8,286047003.9,N
1518284935.7,286047004.0,N
1518284955.5,286046999.9,N
1518284975.3,286047004.1,N
1518284995.2,286047005.3,N
1518285015.0,286047005.5,N
1518285015.9,286047005.5,N
1518285035.8,286047005.5,N
1518285055.6,286047003.7,N
1518285075.4,286047003.3,N
1518285095.3,286047006.0,N
1518285115.1,286047007.2,N
1518285135.8,286047005.2,N
1518285155.7,286047004.1,N
1518285175.5,286047004.3,N
1518285195.4,286047002.4,N
1518285215.2,286047002.3,N
1518285235.0,286047001.3,N
1518285235.9,286047001.3,N
1518285255.8,286047001.7,N
1518285275.6,286047003.1,N
1518285295.4,286047004.2,N
1518285315.3,286047003.5,N
1518285335.1,286047005.3,N
1518285355.9,286047003.3,N
1518285375.7,286047005.6,Y
1518285395.5,286047000.1,P
1518285415.4,286047000.7,N
1518285435.2,286047000.4,N
1518285455.1,286047000.4,N
1518285456.0,286047000.4,N
1518285475.8,286047000.5,N
1518285495.6,286047001.1,N
1518285515.5,286047001.1,N
1518285535.3,286046998.4,N
1518285555.1,286046998.7,N
1518285575.9,286047001.1,N
1518285595.7,286046998.3,N
